Location: Nebraska Star Party
(42.6000°N, 100.8833°W)
Time: 03:50:27
(UTC-06:00)

Amateur Radio Satellites - All Passes

Search period start: 08 December 2016 03:20
Search period end: 09 December 2016 03:20
Location: Nebraska Star Party, 42.6000°N, 100.8833°W

Satellite Date Start Highest point End Downlink Frequencies (MHz)
Time Altitude Azimuth
O/OREOS (USA 219) 08 Dec 03:26:16 03:28:33 14° 261° (W) 03:30:49 437.305
Gurwin Techsat 1B 08 Dec 03:33:12 03:38:13 43° 291° (WNW) 03:43:12 435.225
MOZHAYETS 4 08 Dec 03:37:15 03:41:51 84° 256° (WSW) 03:46:28
SO-50 08 Dec 03:47:02 03:50:42 23° 43° (NE) 03:54:19 436.795
CUBESAT XI-V 08 Dec 03:47:24 03:50:39 19° 64° (ENE) 03:53:55 437.345
KKS-1 08 Dec 03:51:30 03:55:55 61° 73° (ENE) 04:00:22 437.445
STARS 08 Dec 03:51:58 03:55:47 29° 68° (ENE) 03:59:38 437.465
ITAMSAT 1 08 Dec 03:52:34 03:57:46 71° 103° (ESE) 04:02:54 435.822/435.867
GONETS M04 08 Dec 03:56:43 04:00:30 13° 305° (NW) 04:04:19
Cosmos 2499 08 Dec 03:58:37 04:01:28 12° 308° (NW) 04:04:21 435.465 / 435.565
BEESAT 3 08 Dec 04:08:50 04:11:15 16° 111° (ESE) 04:13:41 437.485
AO-85 08 Dec 04:23:37 04:25:22 12° 324° (NW) 04:27:05 145.980
AO-7 08 Dec 04:32:34 04:40:59 75° 106° (ESE) 04:49:21 29.400- 29.500
BEESAT 2 08 Dec 04:42:39 04:45:12 17° 111° (ESE) 04:47:48 435.950
PHONESAT 2.4 08 Dec 04:43:46 04:45:34 16° 204° (SSW) 04:47:21 2401.200-2431.200
HORYU 2 08 Dec 04:58:03 04:59:49 12° 90° (E) 05:01:35 437.375
Cosmos 2504 08 Dec 05:13:05 05:16:35 13° 53° (NE) 05:20:01 435.465 / 435.565
BRITE-PL 08 Dec 05:18:56 05:23:59 36° 96° (E) 05:29:10 437.365/2234.400
CUBESAT XI-V 08 Dec 05:23:18 05:27:42 45° 262° (W) 05:32:08 437.345
SO-50 08 Dec 05:27:03 05:31:24 48° 242° (WSW) 05:35:42 436.795
STARS 08 Dec 05:28:18 05:32:05 27° 264° (W) 05:35:53 437.465
YUBILEINY 08 Dec 05:28:20 05:36:06 33° 69° (ENE) 05:43:48 435.215
KKS-1 08 Dec 05:30:43 05:32:52 13° 270° (W) 05:35:02 437.445
ITAMSAT 1 08 Dec 05:33:31 05:36:38 16° 300° (WNW) 05:39:45 435.822/435.867
BEESAT 3 08 Dec 05:44:44 05:48:30 46° 308° (NW) 05:52:20 437.485
CUTE-I 08 Dec 05:44:56 05:47:17 13° 89° (E) 05:49:37 437.470
RS-15 08 Dec 05:50:18 05:57:57 20° 97° (E) 06:05:45 29.354- 29.394
NOAA 15 08 Dec 05:59:03 06:02:51 20° 92° (E) 06:06:38 137.62
Cosmos 2491 08 Dec 05:59:53 06:06:22 24° 80° (E) 06:12:50 435.465 / 435.565
Cubesat XI-IV 08 Dec 06:10:14 06:14:22 23° 93° (E) 06:18:30 437.490
LilacSat-2 08 Dec 06:11:10 06:14:01 20° 94° (E) 06:16:50 437.200
NOAA 18 08 Dec 06:13:02 06:16:09 15° 90° (E) 06:19:15 137.9125
AIST 1 08 Dec 06:15:35 06:18:48 19° 71° (ENE) 06:21:59
BEESAT 2 08 Dec 06:18:51 06:22:38 44° 308° (NW) 06:26:30 435.950
DOVE 4 08 Dec 06:20:29 06:24:50 25° 92° (E) 06:29:03 437.250
GOMX 1 08 Dec 06:21:03 06:26:29 59° 100° (E) 06:31:52 467.674
AO-7 08 Dec 06:26:17 06:33:00 28° 306° (NW) 06:39:42 29.400- 29.500
HORYU 2 08 Dec 06:32:24 06:36:49 64° 286° (WNW) 06:41:10 437.375
STRAND 1 08 Dec 06:41:12 06:46:04 45° 70° (ENE) 06:50:57 437.568
BRITE-PL 08 Dec 06:57:29 07:02:20 34° 292° (WNW) 07:07:22 437.365/2234.400
Cosmos 2504 08 Dec 07:03:29 07:12:11 60° 77° (ENE) 07:20:20 435.465 / 435.565
CANX-2 08 Dec 07:09:55 07:10:40 10° 89° (E) 07:11:25 2200.000
CINEMA 3 08 Dec 07:22:06 07:25:57 24° 92° (E) 07:29:39 145.822/145.860
CUTE-I 08 Dec 07:22:37 07:27:59 81° 284° (WNW) 07:33:16 437.470
YUBILEINY 08 Dec 07:24:45 07:33:20 59° 269° (W) 07:41:55 435.215
AIST 2 08 Dec 07:29:34 07:32:58 26° 114° (ESE) 07:36:25 435.215
SEEDS 08 Dec 07:30:46 07:31:05 10° 89° (E) 07:31:22 437.485
NOAA 15 08 Dec 07:37:47 07:42:56 54° 289° (WNW) 07:48:03 137.62
LilacSat-2 08 Dec 07:45:04 07:48:19 28° 290° (WNW) 07:51:32 437.200
Cubesat XI-IV 08 Dec 07:49:34 07:54:41 48° 290° (WNW) 07:59:46 437.490
NOAA 18 08 Dec 07:51:50 07:57:23 74° 287° (WNW) 08:02:52 137.9125
AIST 1 08 Dec 07:52:27 07:56:33 38° 268° (W) 08:00:36
Cosmos 2491 08 Dec 07:53:30 08:02:17 75° 280° (W) 08:11:03 435.465 / 435.565
RS-15 08 Dec 07:56:34 08:08:18 80° 119° (ESE) 08:20:38 29.354- 29.394
DOVE 4 08 Dec 07:57:40 08:02:38 42° 290° (WNW) 08:07:27 437.250
GOMX 1 08 Dec 08:00:02 08:04:05 21° 297° (WNW) 08:08:07 467.674
HO-68 08 Dec 08:11:16 08:18:15 50° 100° (E) 08:25:11 435.675
STRAND 1 08 Dec 08:21:27 08:25:25 23° 266° (W) 08:29:26 437.568
CUTE 1.7 + AOD 2 08 Dec 08:24:12 08:28:24 63° 101° (E) 08:32:35 437.475
UNISAT 6 08 Dec 08:31:46 08:32:06 10° 59° (ENE) 08:32:26 437.425
AAUSAT CUBESAT 2 08 Dec 08:36:19 08:39:58 29° 96° (E) 08:43:36 437.432
ZACube-1 08 Dec 08:38:12 08:40:15 13° 90° (E) 08:42:17 437.345
CANX-2 08 Dec 08:42:46 08:46:58 68° 285° (WNW) 08:51:10 2200.000
FUNcube-1 08 Dec 08:44:16 08:46:33 14° 91° (E) 08:48:48 145.935
PRISM 08 Dec 08:46:14 08:50:11 54° 73° (ENE) 08:54:12 437.425
Cosmos 2504 08 Dec 08:57:42 09:04:57 31° 278° (W) 09:11:53 435.465 / 435.565
TIGRISAT 08 Dec 08:57:54 09:01:01 18° 64° (ENE) 09:04:06 435.000
CINEMA 3 08 Dec 08:58:48 09:03:10 36° 291° (WNW) 09:07:21 145.822/145.860
ANTELSAT 08 Dec 08:59:47 09:03:06 20° 65° (ENE) 09:06:24 437.575/2403.000
CUBEBUG 2 08 Dec 08:59:58 09:04:20 62° 101° (E) 09:08:31 437.445
SEEDS 08 Dec 09:03:02 09:07:13 69° 284° (WNW) 09:11:23 437.485
CUTE-I 08 Dec 09:05:14 09:07:08 12° 304° (NW) 09:09:03 437.470
AIST 2 08 Dec 09:07:35 09:11:19 33° 312° (NW) 09:15:07 435.215
COMPASS 1 08 Dec 09:08:42 09:12:53 89° 305° (NW) 09:17:04 437.405
Oscar 11 08 Dec 09:10:35 09:14:17 27° 95° (E) 09:17:59 145.826/435.025
DELFI C3 08 Dec 09:16:23 09:16:33 10° 89° (E) 09:16:43 145.870
CUSAT 1 08 Dec 09:25:07 09:27:51 31° 97° (E) 09:30:17 437.405
AO-85 08 Dec 09:30:58 09:33:35 17° 40° (NE) 09:36:09 145.980
NOAA 18 08 Dec 09:35:14 09:37:04 12° 306° (NW) 09:38:54 137.9125
UWE-3 08 Dec 09:37:14 09:41:33 79° 283° (WNW) 09:45:43 435.000/436.395/437.385
HUMSAT D 08 Dec 09:44:43 09:46:07 12° 90° (E) 09:47:33 437.325/437.525
Cosmos 2491 08 Dec 09:55:53 10:00:49 16° 302° (WNW) 10:05:47 435.465 / 435.565
Cosmos 2499 08 Dec 09:58:14 10:01:38 13° 53° (NE) 10:04:56 435.465 / 435.565
HO-68 08 Dec 09:59:23 10:05:43 35° 299° (WNW) 10:12:02 435.675
CUTE 1.7 + AOD 2 08 Dec 10:01:53 10:03:43 13° 297° (WNW) 10:05:33 437.475
UNISAT 6 08 Dec 10:03:21 10:08:03 84° 74° (ENE) 10:12:42 437.425
GONETS M04 08 Dec 10:08:02 10:12:12 14° 56° (NE) 10:16:22
RS-15 08 Dec 10:11:08 10:22:10 40° 326° (NW) 10:33:35 29.354- 29.394
NANOSAT C BR1 08 Dec 10:11:51 10:13:04 11° 61° (ENE) 10:14:16 145.865
AAUSAT CUBESAT 2 08 Dec 10:11:58 10:15:18 24° 292° (WNW) 10:18:37 437.432
ZACube-1 08 Dec 10:12:47 10:16:53 52° 287° (WNW) 10:20:55 437.345
QB50P2 08 Dec 10:18:47 10:21:17 15° 63° (ENE) 10:23:46 145.880/145.840
FUNcube-1 08 Dec 10:19:02 10:23:06 48° 287° (WNW) 10:27:04 145.935
POLYITAN 1 08 Dec 10:19:23 10:21:46 15° 63° (ENE) 10:24:08 437.675
PRISM 08 Dec 10:24:05 10:25:49 12° 269° (W) 10:27:34 437.425
JAS-2 08 Dec 10:30:25 10:36:09 38° 69° (ENE) 10:41:19 435.910
QB50P1 08 Dec 10:30:50 10:33:50 19° 65° (ENE) 10:36:51 145.935-145.965
DUCHIFAT 1 08 Dec 10:31:05 10:33:45 16° 64° (ENE) 10:36:25 145.980
TIGRISAT 08 Dec 10:32:43 10:37:17 52° 260° (W) 10:41:50 435.000
DANDE 08 Dec 10:34:10 10:38:32 70° 99° (E) 10:41:52 436.750
ANTELSAT 08 Dec 10:34:57 10:39:28 47° 261° (W) 10:43:57 437.575/2403.000
CUBEBUG 2 08 Dec 10:38:18 10:40:22 13° 299° (WNW) 10:42:26 437.445
Oscar 11 08 Dec 10:46:44 10:50:21 27° 292° (WNW) 10:53:58 145.826/435.025
DELFI C3 08 Dec 10:47:48 10:51:46 64° 285° (WNW) 10:55:42 145.870
POPSAT HIP 1 08 Dec 10:51:45 10:55:29 30° 69° (ENE) 10:59:15 437.405
AO-85 08 Dec 11:10:29 11:14:22 57° 241° (WSW) 11:18:09 145.980
BUGSAT 1 08 Dec 11:17:01 11:20:06 20° 65° (ENE) 11:23:12 437.445
HUMSAT D 08 Dec 11:18:06 11:22:06 57° 287° (WNW) 11:26:05 437.325/437.525
PCSat 08 Dec 11:22:07 11:27:23 56° 115° (ESE) 11:32:42 145.827
AISAT 08 Dec 11:34:41 11:36:27 12° 90° (E) 11:38:13 437.250
ESTCUBE 1 08 Dec 11:37:17 11:41:18 30° 96° (E) 11:45:18 437.505/2401.250
NANOSAT C BR1 08 Dec 11:43:53 11:48:10 77° 259° (WSW) 11:52:27 145.865
UNISAT 6 08 Dec 11:45:00 11:45:18 10° 272° (W) 11:45:35 437.425
Cosmos 2499 08 Dec 11:48:24 11:56:55 61° 77° (ENE) 12:04:46 435.465 / 435.565
CUBEBUG 1 08 Dec 11:52:11 11:55:58 27° 95° (E) 11:59:43 437.445
QB50P2 08 Dec 11:52:27 11:56:38 53° 260° (W) 12:00:50 145.880/145.840
POLYITAN 1 08 Dec 11:52:52 11:57:05 56° 259° (W) 12:01:20 437.675
GONETS M04 08 Dec 12:02:14 12:10:56 67° 79° (E) 12:19:37
DUCHIFAT 1 08 Dec 12:04:55 12:09:02 48° 261° (W) 12:13:11 145.980
QB50P1 08 Dec 12:05:16 12:09:19 41° 262° (W) 12:13:23 145.935-145.965
VELOX 1 08 Dec 12:09:43 12:13:33 27° 96° (E) 12:17:20 145.980
DX 1 08 Dec 12:15:05 12:17:54 16° 92° (E) 12:20:40 434.975-435.025
JAS-2 08 Dec 12:15:37 12:21:15 33° 263° (W) 12:26:22 435.910
UKube-1 08 Dec 12:17:46 12:19:40 13° 90° (E) 12:21:34 .
SPROUT 08 Dec 12:23:31 12:27:06 25° 95° (E) 12:30:39 437.525
BEESAT 3 08 Dec 12:24:15 12:26:46 16° 41° (NE) 12:29:16 437.485
POPSAT HIP 1 08 Dec 12:27:43 12:31:15 25° 265° (W) 12:34:48 437.405
RS-15 08 Dec 12:29:49 12:39:27 25° 360° (N) 12:49:09 29.354- 29.394
50 SAT 08 Dec 12:46:22 12:49:54 58° 102° (ESE) 12:53:25 437.505
BUGSAT 1 08 Dec 12:51:15 12:55:12 38° 262° (W) 12:59:12 437.445
Oscar 19 08 Dec 12:57:55 13:02:54 56° 72° (ENE) 13:07:57 437.125/150
BEESAT 2 08 Dec 12:58:56 13:01:37 17° 41° (NE) 13:04:18 435.950
PCSat 08 Dec 13:06:41 13:11:08 25° 314° (NW) 13:15:36 145.827
AISAT 08 Dec 13:08:54 13:13:22 66° 286° (WNW) 13:17:47 437.250
ESTCUBE 1 08 Dec 13:14:12 13:17:59 27° 293° (WNW) 13:21:47 437.505/2401.250
Gurwin Techsat 1B 08 Dec 13:15:18 13:20:17 43° 69° (ENE) 13:25:18 435.225
CUBEBUG 1 08 Dec 13:28:21 13:32:12 29° 292° (WNW) 13:36:02 437.445
ITAMSAT 1 08 Dec 13:34:23 13:37:32 16° 60° (ENE) 13:40:41 435.822/435.867
TISAT 1 08 Dec 13:35:56 13:39:27 25° 95° (E) 13:42:56 437.305
AO-7 08 Dec 13:42:01 13:48:28 26° 53° (NE) 13:54:55 29.400- 29.500
Cosmos 2499 08 Dec 13:42:27 13:49:21 29° 279° (W) 13:55:53 435.465 / 435.565
VELOX 1 08 Dec 13:46:05 13:49:57 29° 292° (WNW) 13:53:49 145.980
DX 1 08 Dec 13:50:05 13:54:19 47° 289° (WNW) 13:58:31 434.975-435.025
UKube-1 08 Dec 13:51:48 13:56:06 60° 287° (WNW) 14:00:21 .
SPROUT 08 Dec 13:59:17 14:02:59 29° 292° (WNW) 14:06:40 437.525
GONETS M04 08 Dec 14:00:10 14:06:59 27° 279° (W) 14:13:51
BEESAT 3 08 Dec 14:00:50 14:04:47 65° 240° (WSW) 14:08:44 437.485
M-CUBED/EXP-1 PRIME 08 Dec 14:25:55 14:28:34 15° 95° (E) 14:31:09 437.505
BEESAT 2 08 Dec 14:35:48 14:39:47 61° 240° (WSW) 14:43:45 435.950
Oscar 19 08 Dec 14:39:08 14:42:35 18° 269° (W) 14:46:03 437.125/150
RS-15 08 Dec 14:45:20 14:56:46 40° 34° (NE) 15:07:57 29.354- 29.394
SWISSCUBE 08 Dec 14:46:21 14:50:36 32° 97° (E) 14:54:50 437.505
BEESAT 08 Dec 14:50:06 14:54:20 31° 96° (E) 14:58:33 436.000
Gurwin Techsat 1B 08 Dec 14:56:03 15:00:23 25° 266° (W) 15:04:45 435.225
ITAMSAT 1 08 Dec 15:11:12 15:16:24 72° 257° (WSW) 15:21:38 435.822/435.867
TISAT 1 08 Dec 15:11:25 15:15:03 28° 292° (WNW) 15:18:39 437.305
ITUPSAT 1 08 Dec 15:19:19 15:24:02 60° 101° (ESE) 15:28:44 437.325
AO-7 08 Dec 15:32:03 15:40:22 80° 253° (WSW) 15:48:46 29.400- 29.500
MOZHAYETS 4 08 Dec 15:32:12 15:35:41 21° 93° (E) 15:39:10
ISS 08 Dec 15:33:49 15:36:47 32° 138° (SE) 15:39:46 145.825
AUBIESAT-1 08 Dec 15:44:06 15:48:42 80° 108° (ESE) 15:53:03 437.475
KKS-1 08 Dec 15:44:20 15:45:27 11° 89° (E) 15:46:34 437.445
AIST 2 08 Dec 15:49:41 15:53:13 25° 46° (NE) 15:56:44 435.215
HORYU 2 08 Dec 15:56:44 15:59:04 14° 61° (ENE) 16:01:24 437.375
O/OREOS (USA 219) 08 Dec 15:57:56 16:02:25 60° 109° (ESE) 16:06:54 437.305
M-CUBED/EXP-1 PRIME 08 Dec 15:58:47 16:03:25 60° 292° (WNW) 16:07:49 437.505
Cosmos 2491 08 Dec 16:09:49 16:12:34 12° 53° (NE) 16:15:19 435.465 / 435.565
SWISSCUBE 08 Dec 16:24:15 16:28:17 28° 293° (WNW) 16:32:19 437.505
BEESAT 08 Dec 16:27:57 16:32:02 29° 293° (WNW) 16:36:05 436.000
BRITE-PL 08 Dec 16:31:03 16:35:03 36° 69° (ENE) 16:39:21 437.365/2234.400
LilacSat-2 08 Dec 16:55:02 16:56:43 13° 64° (ENE) 16:58:23 437.200
RS-15 08 Dec 16:58:17 17:10:41 81° 240° (WSW) 17:22:39 29.354- 29.394
ITUPSAT 1 08 Dec 16:58:27 17:01:23 16° 298° (WNW) 17:04:18 437.325
CUTE-I 08 Dec 17:06:33 17:10:49 25° 64° (ENE) 17:15:05 437.470
MOZHAYETS 4 08 Dec 17:08:44 17:12:59 38° 290° (WNW) 17:17:11
ISS 08 Dec 17:10:09 17:13:15 37° 335° (NNW) 17:16:22 145.825
STARS 08 Dec 17:16:07 17:20:25 49° 100° (E) 17:24:41 437.465
KKS-1 08 Dec 17:18:02 17:22:31 74° 286° (WNW) 17:26:58 437.445
CUBESAT XI-V 08 Dec 17:18:47 17:23:13 41° 98° (E) 17:27:37 437.345
NOAA 15 08 Dec 17:19:31 17:24:11 34° 67° (ENE) 17:28:53 137.62
AUBIESAT-1 08 Dec 17:20:14 17:22:24 13° 305° (NW) 17:24:32 437.475
DOVE 4 08 Dec 17:26:19 17:30:22 26° 66° (ENE) 17:34:37 437.250
AIST 2 08 Dec 17:27:52 17:31:48 38° 244° (WSW) 17:35:43 435.215
GOMX 1 08 Dec 17:29:41 17:34:16 61° 73° (ENE) 17:39:14 467.674
AO-7 08 Dec 17:29:47 17:34:22 16° 272° (W) 17:38:59 29.400- 29.500
HORYU 2 08 Dec 17:30:38 17:35:05 65° 259° (WSW) 17:39:33 437.375
Cubesat XI-IV 08 Dec 17:32:34 17:37:33 40° 68° (ENE) 17:42:33 437.490
NOAA 18 08 Dec 17:39:11 17:44:03 32° 65° (ENE) 17:48:55 137.9125
O/OREOS (USA 219) 08 Dec 17:39:19 17:42:14 17° 308° (NW) 17:45:08 437.305
Cosmos 2491 08 Dec 18:03:03 18:11:39 58° 77° (ENE) 18:20:11 435.465 / 435.565
BRITE-PL 08 Dec 18:10:19 18:13:42 22° 268° (W) 18:17:17 437.365/2234.400
CINEMA 3 08 Dec 18:23:45 18:27:50 26° 66° (ENE) 18:31:58 145.822/145.860
LilacSat-2 08 Dec 18:26:48 18:30:34 52° 260° (W) 18:34:20 437.200
PCSat 08 Dec 18:27:55 18:29:49 12° 33° (NNE) 18:31:44 145.827
YUBILEINY 08 Dec 18:30:39 18:38:15 36° 84° (E) 18:45:54 435.215
HO-68 08 Dec 18:40:39 18:47:12 40° 63° (ENE) 18:53:46 435.675
CUTE-I 08 Dec 18:45:25 18:50:35 46° 261° (W) 18:55:45 437.470
ISS 08 Dec 18:48:07 18:50:26 17° 355° (N) 18:52:45 145.825
AIST 1 08 Dec 18:48:22 18:49:07 10° 82° (E) 18:49:52
STRAND 1 08 Dec 18:52:29 18:55:07 14° 90° (E) 18:57:45 437.568
STARS 08 Dec 18:53:30 18:56:23 17° 297° (WNW) 18:59:14 437.465
CUBESAT XI-V 08 Dec 18:56:45 19:00:20 22° 294° (WNW) 19:03:54 437.345
NOAA 15 08 Dec 18:59:21 19:03:57 31° 264° (W) 19:08:36 137.62
UWE-3 08 Dec 19:02:07 19:02:53 10° 60° (ENE) 19:03:40 435.000/436.395/437.385
DOVE 4 08 Dec 19:03:18 19:07:50 38° 264° (W) 19:12:37 437.250
GOMX 1 08 Dec 19:10:16 19:12:53 15° 272° (W) 19:15:37 467.674
RS-15 08 Dec 19:13:03 19:21:09 21° 263° (W) 19:29:07 29.354- 29.394
Cubesat XI-IV 08 Dec 19:13:10 19:17:43 27° 265° (W) 19:22:16 437.490
CUTE 1.7 + AOD 2 08 Dec 19:17:16 19:21:18 47° 73° (ENE) 19:25:21 437.475
NOAA 18 08 Dec 19:19:31 19:24:35 37° 262° (W) 19:29:43 137.9125
AAUSAT CUBESAT 2 08 Dec 19:27:27 19:30:37 22° 67° (ENE) 19:33:46 437.432
ZACube-1 08 Dec 19:34:48 19:37:07 14° 63° (ENE) 19:39:24 437.345
CANX-2 08 Dec 19:35:43 19:39:56 90° 70° (ENE) 19:44:10 2200.000
FUNcube-1 08 Dec 19:40:35 19:43:02 15° 63° (ENE) 19:45:29 145.935
SO-50 08 Dec 19:41:18 19:45:50 45° 118° (ESE) 19:50:20 436.795
Cosmos 2504 08 Dec 19:41:31 19:49:30 49° 88° (E) 19:57:53 435.465 / 435.565
CUSAT 1 08 Dec 19:53:33 19:56:59 29° 77° (ENE) 20:01:16 437.405
SEEDS 08 Dec 19:54:55 19:59:04 86° 76° (ENE) 20:03:16 437.485
CUBEBUG 2 08 Dec 19:57:50 20:02:29 57° 74° (ENE) 20:07:06 437.445
COMPASS 1 08 Dec 19:59:40 20:03:44 64° 76° (ENE) 20:07:49 437.405
CINEMA 3 08 Dec 20:00:06 20:04:44 39° 263° (W) 20:09:26 145.822/145.860
Cosmos 2491 08 Dec 20:00:40 20:07:57 31° 277° (W) 20:15:13 435.465 / 435.565
Oscar 11 08 Dec 20:06:09 20:09:37 24° 67° (ENE) 20:13:05 145.826/435.025
PCSat 08 Dec 20:09:12 20:14:32 52° 55° (NE) 20:19:49 145.827
AIST 1 08 Dec 20:21:46 20:26:03 68° 280° (W) 20:30:24
ISS 08 Dec 20:25:06 20:27:47 22° 15° (NNE) 20:30:28 145.825
YUBILEINY 08 Dec 20:26:16 20:34:41 52° 285° (WNW) 20:43:13 435.215
HO-68 08 Dec 20:28:09 20:34:50 42° 262° (W) 20:41:36 435.675
STRAND 1 08 Dec 20:29:43 20:34:48 70° 287° (WNW) 20:39:52 437.568
UWE-3 08 Dec 20:33:57 20:38:38 88° 71° (ENE) 20:43:13 435.000/436.395/437.385
HUMSAT D 08 Dec 20:38:09 20:38:33 10° 61° (ENE) 20:38:57 437.325/437.525
CUTE 1.7 + AOD 2 08 Dec 20:54:58 20:57:23 15° 269° (W) 20:59:49 437.475
AAUSAT CUBESAT 2 08 Dec 21:02:15 21:05:54 31° 263° (W) 21:09:36 437.432
ZACube-1 08 Dec 21:08:22 21:12:52 65° 258° (WSW) 21:17:20 437.345
DANDE 08 Dec 21:09:24 21:12:12 38° 79° (E) 21:15:37 436.750
FUNcube-1 08 Dec 21:14:20 21:18:48 61° 259° (W) 21:23:13 145.935
SO-50 08 Dec 21:22:27 21:26:29 27° 316° (NW) 21:30:28 436.795
DELFI C3 08 Dec 21:33:38 21:37:33 77° 75° (ENE) 21:41:29 145.870
Cosmos 2504 08 Dec 21:35:16 21:43:04 39° 289° (WNW) 21:51:15 435.465 / 435.565
CUSAT 1 08 Dec 21:35:33 21:38:48 23° 264° (W) 21:42:45 437.405
CUBEBUG 2 08 Dec 21:36:35 21:39:25 16° 269° (W) 21:42:15 437.445
COMPASS 1 08 Dec 21:38:49 21:39:42 11° 271° (W) 21:40:36 437.405
Oscar 11 08 Dec 21:41:45 21:45:36 31° 264° (W) 21:49:28 145.826/435.025
PCSat 08 Dec 21:53:21 21:57:32 23° 253° (WSW) 22:01:43 145.827
UNISAT 6 08 Dec 21:55:49 21:58:29 16° 91° (E) 22:01:06 437.425
ISS 08 Dec 22:01:20 22:04:40 86° 36° (NE) 22:07:58 145.825
PRISM 08 Dec 22:01:47 22:05:59 82° 106° (ESE) 22:10:08 437.425
HUMSAT D 08 Dec 22:09:20 22:13:32 80° 259° (W) 22:17:43 437.325/437.525
TIGRISAT 08 Dec 22:23:56 22:27:45 29° 96° (E) 22:31:30 435.000
ANTELSAT 08 Dec 22:26:08 22:30:05 33° 96° (E) 22:33:57 437.575/2403.000
AISAT 08 Dec 22:32:57 22:34:59 13° 61° (ENE) 22:37:02 437.250
ESTCUBE 1 08 Dec 22:37:28 22:41:22 31° 68° (ENE) 22:45:18 437.505/2401.250
CUBEBUG 1 08 Dec 22:48:53 22:52:25 25° 67° (ENE) 22:56:00 437.445
VELOX 1 08 Dec 23:07:39 23:11:22 27° 67° (ENE) 23:15:06 145.980
DX 1 08 Dec 23:11:34 23:14:19 17° 63° (ENE) 23:17:06 434.975-435.025
GONETS M04 08 Dec 23:13:06 23:17:06 14° 74° (ENE) 23:21:07
UKube-1 08 Dec 23:13:21 23:15:20 13° 61° (ENE) 23:17:18 .
SPROUT 08 Dec 23:17:45 23:21:05 22° 67° (ENE) 23:24:26 437.525
50 SAT 08 Dec 23:22:30 23:25:27 26° 70° (ENE) 23:28:24 437.505
JAS-2 08 Dec 23:23:02 23:27:27 27° 96° (E) 23:32:04 435.910
NANOSAT C BR1 08 Dec 23:28:43 23:31:20 16° 92° (E) 23:33:56 145.865
UNISAT 6 08 Dec 23:31:16 23:35:29 47° 288° (WNW) 23:39:36 437.425
QB50P2 08 Dec 23:37:06 23:40:29 23° 94° (E) 23:43:50 145.880/145.840
POLYITAN 1 08 Dec 23:37:37 23:40:54 22° 94° (E) 23:44:08 437.675
ISS 08 Dec 23:39:26 23:40:42 12° 230° (SW) 23:41:58 145.825
DUCHIFAT 1 08 Dec 23:48:36 23:52:03 24° 95° (E) 23:55:26 145.980
QB50P1 08 Dec 23:49:17 23:52:59 29° 96° (E) 23:56:38 145.935-145.965
TIGRISAT 09 Dec 00:00:43 00:04:20 26° 293° (WNW) 00:07:53 435.000
ANTELSAT 09 Dec 00:03:10 00:06:37 23° 294° (WNW) 00:10:01 437.575/2403.000
AISAT 09 Dec 00:06:27 00:10:52 69° 258° (WSW) 00:15:20 437.250
PHONESAT 2.4 09 Dec 00:09:15 00:11:35 27° 163° (SSE) 00:13:55 2401.200-2431.200
POPSAT HIP 1 09 Dec 00:10:51 00:14:59 49° 100° (E) 00:19:03 437.405
ESTCUBE 1 09 Dec 00:14:26 00:18:09 26° 265° (W) 00:21:56 437.505/2401.250
Cosmos 2499 09 Dec 00:24:14 00:32:25 50° 89° (E) 00:40:52 435.465 / 435.565
CUBEBUG 1 09 Dec 00:24:40 00:28:34 31° 264° (W) 00:32:30 437.445
TISAT 1 09 Dec 00:28:20 00:31:35 22° 66° (ENE) 00:34:51 437.305
O/OREOS (USA 219) 09 Dec 00:29:11 00:31:52 15° 52° (NE) 00:34:32 437.305
BUGSAT 1 09 Dec 00:32:24 00:36:00 27° 96° (E) 00:39:33 437.445
VELOX 1 09 Dec 00:43:51 00:47:43 29° 264° (W) 00:51:37 145.980
DX 1 09 Dec 00:45:54 00:50:07 50° 260° (W) 00:54:23 434.975-435.025
UKube-1 09 Dec 00:46:31 00:50:48 66° 258° (WSW) 00:55:08 .
SPROUT 09 Dec 00:52:53 00:56:48 34° 263° (W) 01:00:46 437.525
50 SAT 09 Dec 00:56:13 00:58:44 19° 266° (W) 01:01:17 437.505
AUBIESAT-1 09 Dec 00:58:16 01:00:18 13° 54° (NE) 01:02:22 437.475
NANOSAT C BR1 09 Dec 01:03:15 01:07:17 44° 288° (WNW) 01:11:17 145.865
GONETS M04 09 Dec 01:03:39 01:12:19 75° 94° (E) 01:21:00
JAS-2 09 Dec 01:07:54 01:12:39 37° 291° (WNW) 01:17:39 435.910
Oscar 19 09 Dec 01:09:37 01:13:14 19° 92° (E) 01:16:50 437.125/150
M-CUBED/EXP-1 PRIME 09 Dec 01:11:53 01:15:06 21° 59° (ENE) 01:18:28 437.505
QB50P2 09 Dec 01:12:32 01:16:18 31° 291° (WNW) 01:20:02 145.880/145.840
POLYITAN 1 09 Dec 01:12:57 01:16:45 33° 291° (WNW) 01:20:30 437.675
DUCHIFAT 1 09 Dec 01:24:03 01:27:43 29° 291° (WNW) 01:31:21 145.980
AO-85 09 Dec 01:24:38 01:29:12 38° 117° (ESE) 01:33:28 145.980
QB50P1 09 Dec 01:25:09 01:28:39 25° 293° (WNW) 01:32:06 145.935-145.965
Gurwin Techsat 1B 09 Dec 01:31:56 01:35:06 16° 90° (E) 01:38:13 435.225
PHONESAT 2.4 09 Dec 01:43:57 01:46:33 53° 179° (S) 01:49:09 2401.200-2431.200
POPSAT HIP 1 09 Dec 01:47:46 01:50:20 16° 296° (WNW) 01:52:55 437.405
SWISSCUBE 09 Dec 01:53:16 01:57:43 40° 70° (ENE) 02:02:11 437.505
BEESAT 09 Dec 01:56:59 02:01:24 40° 70° (ENE) 02:05:51 436.000
TISAT 1 09 Dec 02:03:07 02:07:00 34° 262° (W) 02:10:55 437.305
O/OREOS (USA 219) 09 Dec 02:07:18 02:11:43 63° 251° (WSW) 02:16:07 437.305
BUGSAT 1 09 Dec 02:07:49 02:11:16 25° 293° (WNW) 02:14:40 437.445
Cosmos 2499 09 Dec 02:17:45 02:25:43 40° 289° (WNW) 02:33:57 435.465 / 435.565
ITUPSAT 1 09 Dec 02:26:28 02:31:14 76° 75° (ENE) 02:36:01 437.325
AUBIESAT-1 09 Dec 02:29:47 02:34:00 78° 253° (WSW) 02:38:31 437.475
SO-50 09 Dec 02:34:33 02:34:46 10° 29° (NNE) 02:35:00 436.795
MOZHAYETS 4 09 Dec 02:34:48 02:38:23 23° 66° (ENE) 02:41:58
KKS-1 09 Dec 02:42:58 02:44:50 12° 60° (ENE) 02:46:43 437.445
M-CUBED/EXP-1 PRIME 09 Dec 02:45:14 02:49:14 42° 257° (WSW) 02:53:31 437.505
Oscar 19 09 Dec 02:47:48 02:52:53 55° 289° (WNW) 02:57:57 437.125/150
GONETS M04 09 Dec 03:03:15 03:10:03 25° 296° (WNW) 03:16:53
AO-85 09 Dec 03:05:28 03:09:41 29° 313° (NW) 03:13:39 145.980
